This is the latest recevied weather packets stored in our database for station/object CW2401. If no packets are shown the sender has not sent any weather packets the latest 10 day(s).
| Time | Temp. | Humidity | Pressure | Rain* | Wind** | Luminosity | Snow |
|---|---|---|---|---|---|---|---|
| 1777871308 | 5.56° C | 87% | 1018.5 hPa | 0 mm | - | - | - |
| 1777870700 | 5.56° C | 87% | 1018.5 hPa | 0 mm | - | - | - |
| 1777870340 | 5.56° C | 87% | 1018.4 hPa | 0 mm | - | - | - |
| 1777868526 | 6.11° C | 86% | 1018.5 hPa | 0 mm | - | - | - |
| 1777867806 | 6.67° C | 85% | 1018.4 hPa | 0 mm | - | - | - |
| 1777866719 | 6.67° C | 84% | 1018.3 hPa | 0 mm | - | - | - |
| 1777864782 | 7.22° C | 83% | 1018.4 hPa | 0 mm | - | - | - |
| 1777864419 | 7.22° C | 82% | 1018.3 hPa | 0 mm | - | - | - |
| 1777863931 | 7.78° C | 82% | 1018.2 hPa | 0 mm | - | - | - |
| 1777861876 | 8.33° C | 79% | 1018 hPa | 0 mm | - | - | - |
| 1777861756 | 8.33° C | 79% | 1018 hPa | 0 mm | - | - | - |
| 1777861390 | 8.33° C | 79% | 1017.9 hPa | 0 mm | - | - | - |
| 1777861271 | 8.89° C | 78% | 1017.9 hPa | 0 mm | - | - | - |
| 1777861150 | 8.89° C | 78% | 1018 hPa | 0 mm | - | - | - |
| 1777860908 | 8.89° C | 78% | 1018 hPa | 0 mm | - | - | - |
| 1777860303 | 8.89° C | 77% | 1018 hPa | 0 mm | - | - | - |
| 1777859819 | 9.44° C | 75% | 1018 hPa | 0 mm | - | - | - |
| 1777859697 | 9.44° C | 75% | 1018 hPa | 0 mm | - | - | - |
| 1777859096 | 9.44° C | 74% | 1018 hPa | 0 mm | - | - | - |
| 1777858612 | 10° C | 72% | 1018 hPa | 0 mm | - | - | - |
| 1777858369 | 10.56° C | 71% | 1017.9 hPa | 0 mm | - | - | - |
| 1777857284 | 10.56° C | 67% | 1017.8 hPa | 0 mm | - | - | - |
| 1777856796 | 11.11° C | 66% | 1017.6 hPa | 0 mm | - | - | - |
| 1777856556 | 11.11° C | 65% | 1017.6 hPa | 0 mm | - | - | - |
| 1777855954 | 11.67° C | 63% | 1017.3 hPa | 0 mm | - | - | - |
* Rain latest hour (hover to see other rain measurements)
** Current wind speed in m/s (hover to see current wind gust speed)